Hourly Data Report for August 24, 2021

KUGLUKTUK A
NUNAVUT
Current Station Operator: NAVCAN

67°49'00.000" N
115°08'38.000" W
22.60 m
2300903
71938
YCO

Download Data

Hourly Data (August 2021)
Hourly Data Report for August 24, 2021
TIME
LST
Temp Definition
°C
Dew Point Definition
°C
Rel Hum Definition
%
Precip. Amount Definition
mm

Wind Dir Definition
10's deg

Wind Spd Definition
km/h
Visibility Definition
km
Stn Press Definition
kPa
Hmdx Definition


Wind Chill Definition


Weather Definition


00:00 5.7 5.2 97   19 9 24.1 100.79     LegendNANA
01:00 5.6 5.0 96   25 7 24.1 100.81     LegendNANA
02:00 5.1 4.6 97   23 10 24.1 100.80     Mainly Clear
03:00 4.3 3.9 98   20 12 24.1 100.79     LegendNANA
04:00 3.7 3.4 98   20 11 24.1 100.79     LegendNANA
05:00 2.7 2.4 98   23 4 24.1 100.79     Mainly Clear
06:00 3.5 3.1 98   20 15 24.1 100.78     LegendNANA
07:00 5.6 4.8 95   25 4 24.1 100.76     LegendNANA
08:00 7.5 6.3 92   19 6 24.1 100.74     Cloudy
09:00 9.5 7.4 87   21 6 24.1 100.71     LegendNANA
10:00 11.9 7.0 72   22 7 24.1 100.67     LegendNANA
11:00 11.1 7.6 79   36 9 24.1 100.66     Cloudy
12:00 12.1 8.6 79   2 8 24.1 100.63     LegendNANA
13:00 15.4 8.7 64   8 11 24.1 100.59     LegendNANA
14:00 15.3 8.3 63   9 18 24.1 100.55     Mostly Cloudy
15:00 15.2 8.1 62   8 18 24.1 100.51     LegendNANA
16:00 16.0 7.0 55   9 16 24.1 100.45     LegendNANA
17:00 15.6 6.5 55   9 16 24.1 100.41     Mainly Clear
18:00 14.4 6.9 60   10 19 24.1 100.40     LegendNANA
19:00 13.6 6.5 62   10 18 24.1 100.35     LegendNANA
20:00 12.6 6.6 67   11 14 24.1 100.33     Mostly Cloudy
21:00 12.4 6.4 67   11 16 24.1 100.27     LegendNANA
22:00 10.6 5.9 73   10 16 24.1 100.22     LegendNANA
23:00 9.9 7.1 83   14 8 24.1 100.21     Mostly Cloudy

Notes on Data Quality.

Legend

  • E = Estimated
  • M = Missing
  • NA = Not Available*
  • [empty] = Indicates an unobserved value
Date modified: